Home   Weather   Gaborone   Past weeks

Flag for Botswana Past Weather in Gaborone, Botswana — Yesterday and Last 2 Weeks

Now
79 °F

Scattered clouds.


Feels Like: 81 °F
Forecast: 67 / 78 °F
Wind: 12 mph from North

Location: Seretse Khama International Airport

Current Time: Feb 19, 2017 at 4:46:47 pm

Latest Report: Feb 19, 2017 at 3:00 pm


Visibility: N/A

Pressure: 30.04 "Hg (26.77 "Hg at 1009m altitude)

Humidity: 61%

Dew Point: 64 °F

Location of GaboroneLocation

Past Weather in Gaborone — Graph

°F

Gaborone Temperature Yesterday

Maximum temperature yesterday: 81 °F (at 1:00 pm)
Minimum temperature yesterday: 68 °F (at 6:00 am)
Average temperature yesterday: 74 °F

High & Low Weather Summary for the Past Weeks

 TemperatureHumidityPressure
High90 °F (Feb 9, 2:00 pm)100% (Feb 5, 5:00 am)30.18 "Hg (Feb 5, 5:00 am)
Low64 °F (Feb 10, 9:00 am)38% (Feb 12, 3:00 pm)29.86 "Hg (Feb 10, 9:00 am)
Average76 °F72%30.03 "Hg
* Reported Feb 4 3:00 pm — Feb 19 3:00 pm, Gaborone, Weather by CustomWeather, © 2017

Note: Actual official high and low records may vary slightly from our data, if they occured in-between our weather recording intervals... More about our weather records

Advertising

Gaborone Weather History for the Previous 24 Hours

Scroll right to see more
 ConditionsComfort  
Time TempWeatherWind HumidityBarometerVisibility
3:00 pm
Sun, Feb 19
79 °FScattered clouds.12 mph61%30.04 "HgN/A
2:00 pm82 °FPartly sunny.10 mph55%30.07 "HgN/A
1:00 pm81 °FScattered clouds.12 mph54%30.09 "HgN/A
12:00 pm81 °FPartly sunny.12 mph58%30.09 "HgN/A
11:00 am77 °FPartly sunny.13 mph65%30.12 "HgN/A
10:00 am77 °FPartly sunny.15 mph69%30.15 "HgN/A
9:00 am72 °FOvercast.6 mph83%30.15 "HgN/A
8:00 am70 °FOvercast.6 mph88%30.15 "HgN/A
7:00 am68 °FScattered clouds.5 mph94%30.12 "HgN/A
6:00 am68 °FPassing clouds.6 mph94%30.12 "HgN/A
5:00 am68 °FClear.7 mph88%30.12 "Hg10 mi
4:00 am70 °FClear.7 mph83%30.12 "Hg10 mi
12:00 am72 °FPassing clouds.5 mph78%30.12 "HgN/A
11:00 pm
Sat, Feb 18
73 °FPartly cloudy.6 mph74%30.12 "HgN/A
10:00 pm73 °FPartly cloudy.5 mph78%30.12 "HgN/A
9:00 pm73 °FPassing clouds.2 mph78%30.09 "HgN/A
8:00 pm73 °FPassing clouds.5 mph74%30.07 "HgN/A
7:00 pm75 °FPassing clouds.7 mph69%30.04 "HgN/A
6:00 pm79 °FScattered clouds.10 mph65%30.04 "HgN/A
5:00 pm81 °FScattered clouds.14 mph58%30.04 "HgN/A
4:00 pm81 °FScattered clouds.14 mph62%30.04 "HgN/A
Weather by CustomWeather, © 2017

See weather overviewHow to use our weather pages